Weather in Nettuno

Italy     41°27′32″N   12°39′47″E
temp.,
°C
wind,
m/s
gust,
m/s
humid.,
%
clouds,
%
prec.,
mm/h
press.,
hPa
HPBL,
m
17 april, sat
sat1723:00+10nnw4571100 0.0 1013165
02:00+9ne3375100 0.0 101256
05:00+9ene2264100 0.0 101150
08:00+10e2262100 0.0 101199
11:00+12se2262100 0.0 1012456
14:00+13sw2257100 0.0 10111057
17:00+13wsw556550 0.1 1011906
20:00+11ssw237499 0.2 1012200
18 april, sun
sun1823:00+10sse2381100 0.3 1013205
02:00+10ese2289100 1.8 1012143
05:00+9ese2291100 3.4 101277
08:00+10ese358498 4.6 1012334
11:00+12se7777100 1.3 10131017
14:00+10sse5789100 5.8 1013676
17:00+9ese4686100 9.2 1013362
20:00+9se3584100 10.1 1013312
19 april, mon
mon1923:00+9e2488100 0.6 1014185
02:00+9n3488100 0.8 1013132
05:00+8n348997 0.4 1013153
08:00+9nnw348469 0.4 1014296
11:00+12nw346721 0.0 10141062
14:00+14wnw665957 0.1 10141440
17:00+14wnw77675 0.0 1014787
20:00+10wnw45755 0.0 1014171
20 april, tue
tue2023:00+9nnw22780 0.0 1015131
02:00+8ene22803 0.0 101539
05:00+8e33835 0.0 101546
08:00+10ese3479100 0.0 1015156
11:00+14sse4471100 0.4 1016915
14:00+15ssw556878 0.9 10151157
17:00+14s3367100 0.7 10141045
20:00+12se3478100 0.8 1014169
21 april, wed
wed2123:00+10e3483100 0.0 1015130
02:00+11e3476100 0.0 101490
05:00+10ese3578100 0.1 1013123
08:00+12ese3477100 0.1 1013192
11:00+12ese3487100 1.3 1014236
14:00+12e4888100 4.6 1013596
17:00+14ese577961 0.3 1012752
20:00+11ese45896 0.4 1013139